Volver al catálogo

NEIJIANG GAOXIN

ActivoCienciaSSO
NORAD 63985·PAYLOAD·🇨🇳 China
Este nombre de satélite aún no ha sido confirmado por fuentes oficiales.

Lanzado May 14, 2025 desde Jiuquan Satellite Launch Center

Loading…

Próximos Pases (próximas 24 horas)

TLE

ActualizadoSource: Space-Track

Época: Sep 14, 2026, 13:03 UTC

1 63985U 25100D   26257.54383810  .00013003  00000-0  51576-3 0  9997
2 63985  97.3596 332.6637 0005384 347.0940  13.0159 15.25486441 74492

Sigue NEIJIANG GAOXIN en tiempo real con AllMySat

Download on the App Store